Location: Sternwarte Hubelmatt
(47.0367°N, 8.3053°E)
Time: 07:25:44
(UTC+02:00)

DX 1 - Visible Passes

Search period start: 16 April 2024 00:00
Search period end: 26 April 2024 00:00
Orbit: 610 x 620 km, 98.3° (Epoch: 15 April)

Date Brightness Start Highest point End Pass type
(mag) Time Alt. Az. Time Alt. Az. Time Alt. Az.
16 Apr ? 01:18:25 10° NNE 01:20:17 25° NNE 01:20:17 25° NNE visible
16 Apr ? 02:55:54 10° NNW 02:57:22 13° NW 02:57:22 13° NW visible
17 Apr ? 01:34:13 10° N 01:36:22 29° N 01:36:22 29° N visible
17 Apr ? 03:13:11 10° NW 03:13:26 10° NW 03:13:26 10° NW visible
18 Apr ? 00:15:10 10° NE 00:15:21 11° NE 00:15:21 11° NE visible
18 Apr ? 01:50:05 10° N 01:52:26 30° N 01:52:26 30° N visible
19 Apr ? 00:30:25 10° NE 00:31:25 15° NE 00:31:25 15° NE visible
19 Apr ? 02:06:01 10° N 02:08:29 28° NNW 02:08:29 28° NNW visible
20 Apr ? 00:45:53 10° NNE 00:47:28 20° NE 00:47:28 20° NE visible
20 Apr ? 02:22:02 10° N 02:24:32 24° NW 02:24:32 24° NW visible
21 Apr ? 01:01:27 10° NNE 01:03:30 26° NE 01:03:30 26° NE visible
21 Apr ? 02:38:09 10° NNW 02:40:34 19° NW 02:40:34 19° NW visible
22 Apr ? 01:17:08 10° NNE 01:19:32 32° NNE 01:19:32 32° NNE visible
22 Apr ? 02:54:28 10° NNW 02:56:36 15° NW 02:56:36 15° NW visible
23 Apr ? 01:32:52 10° NNE 01:35:34 37° N 01:35:34 37° N visible
23 Apr ? 03:11:20 10° NW 03:12:27 11° NW 03:12:38 11° WNW visible
24 Apr ? 00:13:55 10° NE 00:14:31 12° ENE 00:14:31 12° ENE visible
24 Apr ? 01:48:41 10° N 01:51:35 38° NNW 01:51:35 38° NNW visible
25 Apr ? 00:29:05 10° NE 00:30:31 17° ENE 00:30:31 17° ENE visible
25 Apr ? 02:04:33 10° N 02:07:35 34° NW 02:07:35 34° NW visible
